THORAD DELTA 1 DEB, 8790

Orbit data source: Space-Track

THORAD DELTA 1 DEB, 8790 is space debris in SSO originally from a launch on Fri, 15 Nov 1974 UTC launched from the Air Force Western Test Range (AFWTR). Debris objects in space refer to the collection of defunct objects orbiting the Earth. Examples of debris include non-operational satellites, rocket bodies, and fragments generated from explosions, collisions, or faulty payload assembly.

Loading next visibility...
Identifier
8790, 1974-089DS
Orbit
SSO
Country
Flag of USUS
Related business
Manufacturer
Unknown
Mission
Spacecraft
Bus & Motor
Unknown
Mass
Unknown
Launch date (UTC)
1974-11-15 (51 years ago)
Launch vehicle
Unknown
Launch site
Air Force Western Test Range (AFWTR)
Object type
Payload
Rocket body
Debris
Shape & HBR
Unknown shape, 0.1 m
Radar Cross Section
Small (<0.1 m²)

Expand to show TLE details & history
Last TLE update: 20 hours ago

TLE from 20 hours ago
0 THORAD DELTA 1 DEB
1  8790U 74089DS  25353.50008667  .00000016  00000-0  36047-3 0  9992
2  8790 101.8668 354.1046 0037545  70.3797  86.6183 12.59080240346002
Epoch: 2025-12-19T12:00Z
TLE epoch observation values (Epoch: 2025-12-19T12:00:07.488Z)
Latitude
22.07966°
Longitude
-89.40146°
Altitude
1,427.515 km
Speed
7.15 km/s
True Right ascension
11h 55m 52s
True Declination
21° 58' 13"
Sunlit
Object was in daylight at epoch
Visualization orbit readout
Latitude
Unknown
Longitude
Unknown
Altitude
Unknown
Speed
Unknown
Apparent Right ascension
Unknown
Apparent Declination
Unknown
Sunlit
N/A
Visualization observer readout
Local Sidereal Time
07:04:41
Azimuth
Unknown
Elevation
Unknown
Doppler factor
Unknown
Orbital elements
Apogee altitude
1,453.579 km
Perigee altitude
1,394.991 km
Semi-major axis
7,802.422 km
Eccentricity
0.00375
Inclination
101.8668°
RAAN
354.1046°
Arg. of periapsis
70.3797°
True anomaly
87.0479°
Mean anomaly
86.6183°
Eccentric anomaly
86.83309°
Mean motion
3.14919 °/min
Orbital period
114.32 mins
BSTAR
0.00036047
Loading maneuver chart data...
Computing Atmospheric mass density...

Documentation

Showing up to 5 results
|